TimeEST,TemperatureF,Dew PointF,Humidity,Sea Level PressureIn,VisibilityMPH,Wind Direction,Wind SpeedMPH,Gust SpeedMPH,PrecipitationIn,Events,Conditions,WindDirDegrees,DateUTC
12:15 AM,32.0,32.0,100,29.78,3.0,East,5.8,-,N/A,Snow,Light Snow,90,2012-12-29 05:15:00
12:35 AM,32.0,32.0,100,29.78,4.0,East,3.5,-,N/A,Snow,Light Snow,100,2012-12-29 05:35:00
12:55 AM,32.0,32.0,100,29.77,2.5,Calm,Calm,-,N/A,Snow,Light Snow,0,2012-12-29 05:55:00
1:15 AM,32.0,32.0,100,29.76,1.8,Calm,Calm,-,N/A,Snow,Light Snow,0,2012-12-29 06:15:00
1:35 AM,32.0,32.0,100,29.75,3.0,SE,3.5,-,N/A,Snow,Light Snow,130,2012-12-29 06:35:00
1:55 AM,32.0,32.0,100,29.73,3.0,SE,4.6,-,N/A,Snow,Light Snow,130,2012-12-29 06:55:00
2:15 AM,32.0,32.0,100,29.73,4.0,SSE,3.5,-,N/A,Snow,Light Snow,150,2012-12-29 07:15:00
2:35 AM,32.0,32.0,100,29.73,2.5,SE,3.5,-,N/A,Snow,Light Snow,140,2012-12-29 07:35:00
2:55 AM,32.0,32.0,100,29.73,2.5,SSE,3.5,-,N/A,Snow,Light Snow,160,2012-12-29 07:55:00
3:15 AM,32.0,32.0,100,29.73,3.0,South,3.5,-,N/A,Snow,Light Snow,170,2012-12-29 08:15:00
3:35 AM,32.0,32.0,100,29.72,2.0,South,3.5,-,N/A,Snow,Light Snow,180,2012-12-29 08:35:00
3:55 AM,32.0,32.0,100,29.71,3.0,Calm,Calm,-,N/A,Snow,Light Snow,0,2012-12-29 08:55:00
4:15 AM,32.0,32.0,100,29.70,4.0,Calm,Calm,-,N/A,Snow,Light Snow,0,2012-12-29 09:15:00
4:35 AM,32.0,32.0,100,29.69,5.0,Calm,Calm,-,N/A,,Overcast,0,2012-12-29 09:35:00
4:55 AM,32.0,32.0,100,29.70,10.0,SW,3.5,-,N/A,,Overcast,230,2012-12-29 09:55:00
5:15 AM,32.0,32.0,100,29.69,10.0,WSW,5.8,-,N/A,,Light Drizzle,250,2012-12-29 10:15:00
5:35 AM,33.8,33.8,100,29.69,10.0,WSW,9.2,-,N/A,,Overcast,250,2012-12-29 10:35:00
5:55 AM,33.8,33.8,100,29.70,10.0,West,10.4,16.1,N/A,Rain,Light Rain,260,2012-12-29 10:55:00
6:15 AM,33.8,33.8,100,29.70,5.0,West,12.7,18.4,N/A,Rain,Rain,270,2012-12-29 11:15:00
6:35 AM,33.8,32.0,93,29.71,7.0,West,15.0,24.2,N/A,Rain,Rain,280,2012-12-29 11:35:00
7:15 AM,32.0,32.0,100,29.74,4.0,West,10.4,16.1,N/A,Snow,Light Snow,280,2012-12-29 12:15:00
7:35 AM,32.0,32.0,100,29.75,1.8,WNW,11.5,18.4,N/A,Snow,Light Snow,290,2012-12-29 12:35:00
7:55 AM,32.0,32.0,100,29.76,5.0,WNW,8.1,-,N/A,Snow,Light Snow,290,2012-12-29 12:55:00
8:15 AM,32.0,32.0,100,29.78,5.0,WNW,6.9,-,N/A,Snow,Light Snow,290,2012-12-29 13:15:00
8:35 AM,32.0,32.0,100,29.80,10.0,WNW,10.4,-,N/A,,Overcast,290,2012-12-29 13:35:00
8:55 AM,32.0,32.0,100,29.81,2.5,WNW,10.4,-,N/A,Snow,Light Snow,290,2012-12-29 13:55:00
9:15 AM,32.0,32.0,100,29.83,7.0,NW,10.4,-,N/A,,Overcast,310,2012-12-29 14:15:00
9:35 AM,32.0,32.0,100,29.84,10.0,NW,10.4,-,N/A,,Overcast,310,2012-12-29 14:35:00
9:55 AM,32.0,32.0,100,29.86,10.0,NW,9.2,16.1,N/A,,Overcast,310,2012-12-29 14:55:00
10:15 AM,32.0,30.2,93,29.87,10.0,NW,11.5,20.7,N/A,,Overcast,310,2012-12-29 15:15:00
10:35 AM,32.0,30.2,93,29.88,10.0,NW,10.4,17.3,N/A,,Overcast,310,2012-12-29 15:35:00
10:55 AM,32.0,30.2,93,29.89,7.0,NW,16.1,20.7,N/A,,Overcast,310,2012-12-29 15:55:00
11:15 AM,32.0,30.2,93,29.90,10.0,WNW,12.7,25.3,N/A,,Overcast,300,2012-12-29 16:15:00
11:35 AM,32.0,30.2,93,29.90,7.0,WNW,13.8,23.0,N/A,,Overcast,300,2012-12-29 16:35:00
11:55 AM,32.0,30.2,93,29.91,7.0,NW,15.0,23.0,N/A,,Overcast,310,2012-12-29 16:55:00
12:15 PM,32.0,30.2,93,29.91,7.0,WNW,10.4,18.4,N/A,,Overcast,300,2012-12-29 17:15:00
12:35 PM,32.0,30.2,93,29.90,7.0,NW,11.5,20.7,N/A,,Overcast,310,2012-12-29 17:35:00
12:55 PM,32.0,30.2,93,29.91,7.0,WNW,11.5,-,N/A,,Overcast,300,2012-12-29 17:55:00
1:15 PM,32.0,30.2,93,29.91,7.0,WNW,10.4,20.7,N/A,,Overcast,300,2012-12-29 18:15:00
1:35 PM,32.0,28.4,87,29.91,7.0,WNW,17.3,21.9,N/A,,Overcast,300,2012-12-29 18:35:00
1:55 PM,32.0,28.4,87,29.92,7.0,WNW,12.7,24.2,N/A,,Overcast,300,2012-12-29 18:55:00
2:15 PM,32.0,28.4,87,29.92,7.0,WNW,13.8,19.6,N/A,,Overcast,300,2012-12-29 19:15:00
2:35 PM,32.0,28.4,87,29.93,7.0,WNW,9.2,19.6,N/A,,Overcast,300,2012-12-29 19:35:00
2:55 PM,32.0,30.2,93,29.94,7.0,NW,11.5,-,N/A,,Overcast,310,2012-12-29 19:55:00
3:15 PM,32.0,30.2,93,29.95,5.0,NW,11.5,18.4,N/A,,Overcast,310,2012-12-29 20:15:00
3:35 PM,32.0,30.2,93,29.96,4.0,WNW,11.5,21.9,N/A,Snow,Light Snow,290,2012-12-29 20:35:00
3:55 PM,32.0,30.2,93,29.98,5.0,WNW,10.4,17.3,N/A,,Overcast,290,2012-12-29 20:55:00
4:15 PM,32.0,30.2,93,29.99,10.0,WNW,9.2,-,N/A,,Overcast,300,2012-12-29 21:15:00
4:35 PM,32.0,30.2,93,30.00,10.0,WNW,11.5,-,N/A,,Overcast,290,2012-12-29 21:35:00
4:55 PM,32.0,30.2,93,30.01,7.0,WNW,9.2,-,N/A,,Overcast,300,2012-12-29 21:55:00
5:15 PM,32.0,30.2,93,30.02,5.0,WNW,11.5,16.1,N/A,Snow,Light Snow,300,2012-12-29 22:15:00
5:35 PM,32.0,30.2,93,30.03,5.0,WNW,9.2,-,N/A,Snow,Light Snow,300,2012-12-29 22:35:00
5:55 PM,32.0,30.2,93,30.03,4.0,West,15.0,18.4,N/A,Snow,Light Snow,270,2012-12-29 22:55:00
6:15 PM,30.2,28.4,93,30.05,5.0,WNW,11.5,21.9,N/A,Snow,Light Snow,300,2012-12-29 23:15:00
6:35 PM,30.2,28.4,93,30.06,5.0,NW,13.8,20.7,N/A,Snow,Light Snow,310,2012-12-29 23:35:00
6:55 PM,30.2,28.4,93,30.07,5.0,WNW,13.8,20.7,N/A,Snow,Light Snow,300,2012-12-29 23:55:00
7:15 PM,30.2,28.4,93,30.08,4.0,WNW,15.0,23.0,N/A,Snow,Light Snow,300,2012-12-30 00:15:00
7:35 PM,30.2,26.6,86,30.09,5.0,WNW,9.2,19.6,N/A,Snow,Light Snow,290,2012-12-30 00:35:00
7:55 PM,30.2,26.6,86,30.10,5.0,WNW,12.7,19.6,N/A,Snow,Light Snow,300,2012-12-30 00:55:00
8:15 PM,30.2,26.6,86,30.11,10.0,NW,13.8,25.3,N/A,Snow,Light Snow,310,2012-12-30 01:15:00
8:35 PM,30.2,26.6,86,30.12,10.0,WNW,16.1,25.3,N/A,,Overcast,290,2012-12-30 01:35:00
8:55 PM,28.4,24.8,86,30.14,10.0,WNW,15.0,24.2,N/A,,Overcast,300,2012-12-30 01:55:00
9:15 PM,28.4,23.0,80,30.15,10.0,WNW,16.1,25.3,N/A,,Overcast,290,2012-12-30 02:15:00
9:35 PM,28.4,23.0,80,30.16,10.0,WNW,17.3,26.5,N/A,,Overcast,300,2012-12-30 02:35:00
9:55 PM,28.4,21.2,74,30.18,10.0,WNW,15.0,28.8,N/A,,Overcast,300,2012-12-30 02:55:00
10:15 PM,26.6,21.2,80,30.18,10.0,WNW,11.5,17.3,N/A,,Overcast,300,2012-12-30 03:15:00
10:35 PM,26.6,21.2,80,30.19,10.0,NW,10.4,16.1,N/A,,Overcast,310,2012-12-30 03:35:00
10:55 PM,26.6,21.2,80,30.21,10.0,WNW,12.7,17.3,N/A,,Overcast,300,2012-12-30 03:55:00
11:15 PM,26.6,21.2,80,30.22,10.0,NW,10.4,17.3,N/A,,Overcast,310,2012-12-30 04:15:00
11:35 PM,26.6,21.2,80,30.23,10.0,WNW,11.5,20.7,N/A,,Overcast,290,2012-12-30 04:35:00
11:55 PM,26.6,21.2,80,30.23,10.0,WNW,10.4,20.7,N/A,,Overcast,290,2012-12-30 04:55:00